EN

Hourly Weather Aljojuca

Today, 19 January, Tuesday

Time Temperature Precipitation Wind Pressure Humidity
00:00 +10°C° 0 mm 1 mps 559 mmHg 81%
01:00 +9°C° 0 mm 1 mps 559 mmHg 81%
02:00 +9°C° 0 mm 1 mps 559 mmHg 82%
03:00 +9°C° 0 mm 1 mps 559 mmHg 82%
04:00 +9°C° 0 mm 1 mps 559 mmHg 83%
05:00 +8°C° 0 mm 1 mps 559 mmHg 85%
06:00 +9°C° 0 mm 0 mps 560 mmHg 77%
07:00 +11°C° 0 mm 0 mps 561 mmHg 69%
08:00 +13°C° 0 mm 0 mps 563 mmHg 61%
09:00 +15°C° 0 mm 1 mps 563 mmHg 54%
10:00 +18°C° 0 mm 1 mps 564 mmHg 47%
11:00 +20°C° 0 mm 1 mps 565 mmHg 40%
12:00 +20°C° 0 mm 1 mps 564 mmHg 41%
13:00 +19°C° 0 mm 2 mps 564 mmHg 42%
14:00 +19°C° 0 mm 2 mps 564 mmHg 43%
15:00 +18°C° 0.1 mm 2 mps 563 mmHg 50%
16:00 +17°C° 0.1 mm 2 mps 563 mmHg 58%
17:00 +16°C° 0.1 mm 3 mps 562 mmHg 66%
18:00 +15°C° 0 mm 2 mps 562 mmHg 69%
19:00 +13°C° 0 mm 2 mps 562 mmHg 72%
20:00 +12°C° 0 mm 2 mps 562 mmHg 75%
21:00 +12°C° 0 mm 2 mps 562 mmHg 76%
22:00 +10°C° 0 mm 2 mps 562 mmHg 77%
23:00 +9°C° 0 mm 2 mps 562 mmHg 78%

Tomorrow, 20 January, Wednesday

Time Temperature Precipitation Wind Pressure Humidity
00:00 +9°C° 0 mm 2 mps 561 mmHg 81%
01:00 +8°C° 0 mm 2 mps 561 mmHg 83%
02:00 +8°C° 0 mm 2 mps 561 mmHg 86%
03:00 +8°C° 0 mm 2 mps 561 mmHg 88%
04:00 +8°C° 0 mm 2 mps 561 mmHg 90%
05:00 +8°C° 0 mm 2 mps 561 mmHg 92%
06:00 +9°C° 0 mm 2 mps 562 mmHg 88%
07:00 +10°C° 0 mm 2 mps 563 mmHg 84%
08:00 +11°C° 0 mm 3 mps 563 mmHg 80%
09:00 +12°C° 0 mm 3 mps 564 mmHg 75%
10:00 +13°C° 0 mm 3 mps 564 mmHg 70%
11:00 +14°C° 0 mm 3 mps 565 mmHg 65%
12:00 +16°C° 0.1 mm 3 mps 564 mmHg 63%
13:00 +16°C° 0.1 mm 3 mps 564 mmHg 60%
14:00 +17°C° 0.1 mm 3 mps 564 mmHg 58%
15:00 +16°C° 0.2 mm 3 mps 563 mmHg 64%
16:00 +14°C° 0.2 mm 3 mps 563 mmHg 71%
17:00 +13°C° 0.2 mm 3 mps 562 mmHg 77%
18:00 +12°C° 0.1 mm 3 mps 562 mmHg 79%
19:00 +11°C° 0.1 mm 3 mps 562 mmHg 82%
20:00 +10°C° 0.1 mm 2 mps 563 mmHg 85%
21:00 +10°C° 0 mm 2 mps 562 mmHg 85%
22:00 +9°C° 0 mm 2 mps 562 mmHg 85%
23:00 +8°C° 0 mm 2 mps 562 mmHg 85%

Day after tomorrow, 21 January, Thursday

Time Temperature Precipitation Wind Pressure Humidity
00:00 +8°C° 0 mm 2 mps 561 mmHg 83%
01:00 +9°C° 0 mm 1 mps 561 mmHg 81%
02:00 +8°C° 0 mm 1 mps 560 mmHg 79%
03:00 +8°C° 0 mm 1 mps 560 mmHg 76%
04:00 +7°C° 0 mm 1 mps 560 mmHg 74%
05:00 +7°C° 0 mm 1 mps 560 mmHg 72%
06:00 +9°C° 0 mm 1 mps 561 mmHg 65%
07:00 +10°C° 0 mm 1 mps 562 mmHg 59%
08:00 +12°C° 0 mm 1 mps 563 mmHg 52%
09:00 +14°C° 0 mm 1 mps 564 mmHg 46%
10:00 +16°C° 0 mm 1 mps 564 mmHg 40%
11:00 +19°C° 0 mm 1 mps 565 mmHg 33%
12:00 +18°C° 0 mm 2 mps 564 mmHg 32%
13:00 +19°C° 0 mm 2 mps 564 mmHg 31%
14:00 +20°C° 0 mm 3 mps 563 mmHg 30%
15:00 +18°C° 0 mm 3 mps 563 mmHg 36%
16:00 +17°C° 0 mm 3 mps 562 mmHg 42%
17:00 +16°C° 0 mm 3 mps 561 mmHg 48%
18:00 +14°C° 0 mm 2 mps 561 mmHg 52%
19:00 +13°C° 0 mm 2 mps 560 mmHg 56%
20:00 +12°C° 0 mm 1 mps 560 mmHg 60%
21:00 +11°C° 0 mm 1 mps 560 mmHg 60%
22:00 +11°C° 0 mm 1 mps 559 mmHg 61%
23:00 +10°C° 0 mm 1 mps 559 mmHg 61%

22 January, Friday

Time Temperature Precipitation Wind Pressure Humidity
00:00 +10°C° 0 mm 1 mps 559 mmHg 61%
01:00 +10°C° 0 mm 1 mps 558 mmHg 61%
02:00 +9°C° 0 mm 1 mps 558 mmHg 60%
03:00 +9°C° 0 mm 1 mps 558 mmHg 59%
04:00 +9°C° 0 mm 1 mps 558 mmHg 58%
05:00 +8°C° 0 mm 1 mps 558 mmHg 57%
06:00 +10°C° 0 mm 1 mps 559 mmHg 52%
07:00 +12°C° 0 mm 1 mps 561 mmHg 47%
08:00 +14°C° 0 mm 1 mps 562 mmHg 43%
09:00 +16°C° 0 mm 1 mps 563 mmHg 40%
10:00 +18°C° 0 mm 2 mps 563 mmHg 38%
11:00 +19°C° 0 mm 2 mps 564 mmHg 35%
12:00 +20°C° 0 mm 2 mps 563 mmHg 34%
13:00 +20°C° 0 mm 2 mps 563 mmHg 33%
14:00 +21°C° 0 mm 2 mps 563 mmHg 32%
15:00 +19°C° 0 mm 2 mps 562 mmHg 40%
16:00 +18°C° 0 mm 3 mps 561 mmHg 47%
17:00 +17°C° 0 mm 3 mps 561 mmHg 55%
18:00 +15°C° 0 mm 2 mps 561 mmHg 61%
19:00 +14°C° 0 mm 2 mps 560 mmHg 66%
20:00 +13°C° 0 mm 1 mps 560 mmHg 71%
21:00 +12°C° 0 mm 1 mps 560 mmHg 71%
22:00 +12°C° 0 mm 1 mps 560 mmHg 71%
23:00 +11°C° 0 mm 1 mps 559 mmHg 71%

23 January, Saturday

Time Temperature Precipitation Wind Pressure Humidity
00:00 +11°C° 0 mm 1 mps 559 mmHg 71%
01:00 +10°C° 0 mm 1 mps 559 mmHg 71%
02:00 +10°C° 0 mm 1 mps 559 mmHg 71%
03:00 +10°C° 0 mm 1 mps 559 mmHg 70%
04:00 +9°C° 0 mm 1 mps 558 mmHg 70%
05:00 +9°C° 0 mm 1 mps 558 mmHg 69%
06:00 +11°C° 0 mm 1 mps 560 mmHg 63%
07:00 +12°C° 0 mm 1 mps 561 mmHg 57%
08:00 +14°C° 0 mm 1 mps 562 mmHg 51%
09:00 +16°C° 0 mm 1 mps 563 mmHg 46%
10:00 +18°C° 0 mm 1 mps 563 mmHg 41%
11:00 +20°C° 0 mm 1 mps 564 mmHg 35%
12:00 +19°C° 0 mm 2 mps 564 mmHg 34%
13:00 +20°C° 0 mm 2 mps 563 mmHg 33%
14:00 +20°C° 0 mm 2 mps 563 mmHg 32%
15:00 +19°C° 0 mm 2 mps 562 mmHg 41%
16:00 +17°C° 0 mm 3 mps 561 mmHg 50%
17:00 +16°C° 0 mm 3 mps 561 mmHg 59%
18:00 +15°C° 0 mm 2 mps 561 mmHg 63%
19:00 +14°C° 0 mm 2 mps 560 mmHg 68%
20:00 +12°C° 0 mm 1 mps 560 mmHg 73%
21:00 +12°C° 0 mm 1 mps 560 mmHg 68%
22:00 +11°C° 0 mm 1 mps 559 mmHg 63%
23:00 +10°C° 0 mm 0 mps 559 mmHg 58%

24 January, Sunday

Time Temperature Precipitation Wind Pressure Humidity
00:00 +9°C° 0 mm 0 mps 559 mmHg 56%
01:00 +9°C° 0 mm 0 mps 558 mmHg 53%
02:00 +8°C° 0 mm 0 mps 558 mmHg 50%
03:00 +8°C° 0 mm 0 mps 558 mmHg 50%
04:00 +8°C° 0 mm 0 mps 557 mmHg 50%
05:00 +7°C° 0 mm 0 mps 557 mmHg 49%
06:00 +9°C° 0 mm 0 mps 559 mmHg 44%
07:00 +12°C° 0 mm 0 mps 560 mmHg 38%
08:00 +14°C° 0 mm 0 mps 562 mmHg 33%
09:00 +16°C° 0 mm 1 mps 562 mmHg 30%
10:00 +19°C° 0 mm 1 mps 563 mmHg 26%
11:00 +19°C° 0 mm 2 mps 563 mmHg 23%
12:00 +20°C° 0 mm 2 mps 563 mmHg 23%
13:00 +20°C° 0 mm 3 mps 562 mmHg 22%
14:00 +21°C° 0 mm 3 mps 562 mmHg 22%
15:00 +19°C° 0 mm 3 mps 561 mmHg 29%
16:00 +18°C° 0 mm 3 mps 560 mmHg 36%
17:00 +16°C° 0 mm 3 mps 560 mmHg 43%
18:00 +14°C° 0 mm 3 mps 559 mmHg 45%
19:00 +13°C° 0 mm 2 mps 559 mmHg 48%
20:00 +12°C° 0 mm 1 mps 559 mmHg 51%
21:00 +12°C° 0 mm 1 mps 559 mmHg 53%
22:00 +11°C° 0 mm 1 mps 558 mmHg 55%
23:00 +11°C° 0 mm 1 mps 558 mmHg 57%
Show more